Regional Weather Roundup
Issued by NWS

Home | Current Version | Previous Version | Text Only | Print | Product List | Glossary Off
Versions: 1 2 3 4 5 6 7 8 9 10 11 12 13 14 15 16 17 18 19 20 21 22 23 24 25 26 27 28 29 30 31 32 33 34 35 36 37 38 39 40 41 42 43 44 45 46 47 48 49 50

000
ASUS43 KBIS 060302
RWRND

NORTH DAKOTA REGIONAL WEATHER ROUNDUP
NATIONAL WEATHER SERVICE BISMARCK ND
900 PM CST MON DEC 05 2016

NOTE: "FAIR" INDICATES FEW OR NO CLOUDS BELOW 12,000 FEET WITH NO
SIGNIFICANT WEATHER AND/OR OBSTRUCTIONS TO VISIBILITY.


NDZ001>003-009>011-017-060400-
NORTHWEST NORTH DAKOTA

CITY           SKY/WX    TMP DP  RH WIND       PRES   REMARKS
WILLISTON      LGT SNOW  11   6  81 NW28G40   29.88R VSB 3/4 WCI -10
MINOT          LGT SNOW  23  20  88 NW24      29.63S FOG     WCI   7
MINOT AFB      LGT SNOW  22  20  91 NW23      29.62F VSB 3/4 WCI   6
$$

NDZ018>021-031>035-040>046-060400-
SOUTHWEST NORTH DAKOTA

CITY           SKY/WX    TMP DP  RH WIND       PRES   REMARKS
BISMARCK       LGT SNOW  14  11  87 W26G38    29.70S FOG     WCI  -6
DICKINSON      MIX PCPN   6   2  83 W31G41    29.78F VSB 3/4 WCI -18
GARRISON         N/A     16  12  84 NW38G47   29.66S WCI  -6
HETTINGER ARPT CLOUDY     8   2  76 NW32G45   29.82R HAZE    WCI -16
$$

NDZ004>008-012>016-024-026-027-054-060400-
NORTHEAST NORTH DAKOTA

CITY           SKY/WX    TMP DP  RH WIND       PRES   REMARKS
GRAND FORKS    SNOW      30  27  88 NE16      29.50F VSB 1/2 WCI  19
GRND FRKS AFB  LGT SNOW  29  28  96 NE16      29.49F VSB 3/4 WCI  17
DEVILS LAKE    LGT SNOW  27  26  96 NE20G26   29.53F FOG     WCI  13
$$

NDZ022-023-025-028>030-036>039-047>053-060400-
SOUTHEAST NORTH DAKOTA

CITY           SKY/WX    TMP DP  RH WIND       PRES   REMARKS
FARGO          LGT SNOW  34  31  88 VRB3      29.41F FOG
JAMESTOWN      SNOW      23  21  92 NW25G31   29.51F VSB 1/2 WCI   7
$$





USA.gov is the U.S. government's official web portal to all federal, state and local government web resources and services.